User: anonymous   Login
Location: Newark
(49.1000°N, 0.4667°W)
Time: 17:35:46
(UTC+00:00)
Language:

XW-2A - Orbit

View from above orbital plane
View from above orbital plane
View from above satellite
View from above satellite

Ground track
Ground track

The orbit data is extracted from the following two-line orbital elements,

1 40903U 15049E   20185.46205431  .00001216  00000-0  29370-4 0  9991
2 40903  97.2869 234.4257 0012362 197.7256 276.5919 15.43140324268942
Epoch (UTC): 03 July 2020 11:05:21
Eccentricity: 0.0012362
inclination: 97.2869°
perigee height: 428 km
apogee height: 445 km
right ascension of ascending node: 234.4257°
argument of perigee: 197.7256°
revolutions per day: 15.43140324
mean anomaly at epoch: 276.5919°
orbit number at epoch: 26894

The dashed part of the orbit path shows where the satellite is in the earth's shadow,  

DLR